This is the latest recevied weather packets stored in our database for station/object KQ4JKJ. If no packets are shown the sender has not sent any weather packets the latest 10 day(s).
| Time | Temp. | Humidity | Pressure | Rain* | Wind** | Luminosity | Snow |
|---|---|---|---|---|---|---|---|
| 1777982381 | 24.44° C | 77% | 1010.5 hPa | 0 mm | - | 125 W/m² | - |
| 1777982078 | 23.89° C | 78% | 1010.4 hPa | 0 mm | - | 107 W/m² | - |
| 1777981776 | 23.33° C | 79% | 1010.3 hPa | 0 mm | - | 97 W/m² | - |
| 1777981472 | 23.33° C | 81% | 1010.1 hPa | 0 mm | - | 70 W/m² | - |
| 1777981168 | 22.78° C | 81% | 1010 hPa | 0 mm | - | 43 W/m² | - |
| 1777980865 | 22.78° C | 82% | 1010 hPa | 0 mm | - | 41 W/m² | - |
| 1777980561 | 22.78° C | 83% | 1009.9 hPa | 0 mm | - | 38 W/m² | - |
| 1777980259 | 22.78° C | 83% | 1009.7 hPa | 0 mm | - | 34 W/m² | - |
| 1777979955 | 22.22° C | 84% | 1009.9 hPa | 0 mm | - | 31 W/m² | - |
| 1777979649 | 22.22° C | 84% | 1009.9 hPa | 0 mm | - | 27 W/m² | - |
| 1777979346 | 22.22° C | 84% | 1009.5 hPa | 0 mm | - | 23 W/m² | - |
| 1777979043 | 22.22° C | 84% | 1009.5 hPa | 0 mm | - | 19 W/m² | - |
| 1777978740 | 22.22° C | 84% | 1009.5 hPa | 0 mm | - | 15 W/m² | - |
| 1777978436 | 21.67° C | 84% | 1009.2 hPa | 0 mm | - | 11 W/m² | - |
| 1777978132 | 21.67° C | 84% | 1009.3 hPa | 0 mm | - | 8 W/m² | - |
| 1777977830 | 21.67° C | 84% | 1009.6 hPa | 0 mm | - | 5 W/m² | - |
| 1777977525 | 21.67° C | 85% | 1009.2 hPa | 0 mm | - | 2 W/m² | - |
| 1777977223 | 21.67° C | 85% | 1009.4 hPa | 0 mm | - | 1 W/m² | - |
| 1777976921 | 21.67° C | 85% | 1009.4 hPa | 0 mm | - | 0 W/m² | - |
| 1777976618 | 21.67° C | 84% | 1009.4 hPa | 0 mm | - | 0 W/m² | - |
| 1777976313 | 21.67° C | 85% | 1009.2 hPa | 0 mm | - | 0 W/m² | - |
| 1777976008 | 21.67° C | 86% | 1009.1 hPa | 0 mm | - | 0 W/m² | - |
| 1777975704 | 21.11° C | 87% | 1009.1 hPa | 0 mm | - | 0 W/m² | - |
| 1777975401 | 21.11° C | 88% | 1009 hPa | 0 mm | - | 0 W/m² | - |
| 1777975097 | 21.11° C | 88% | 1008.9 hPa | 0 mm | - | 0 W/m² | - |
* Rain latest hour (hover to see other rain measurements)
** Current wind speed in m/s (hover to see current wind gust speed)